TimeCEST,TemperatureF,Dew PointF,Humidity,Sea Level PressureIn,VisibilityMPH,Wind Direction,Wind SpeedMPH,Gust SpeedMPH,PrecipitationIn,Events,Conditions,WindDirDegrees,DateUTC
12:20 AM,50.0,42.8,76,29.98,6.2,South,12.7,-,N/A,,Partly Cloudy,180,2012-10-04 22:20:00
12:50 AM,50.0,42.8,76,29.95,6.2,South,12.7,-,N/A,,Partly Cloudy,180,2012-10-04 22:50:00
1:20 AM,50.0,44.6,82,29.95,6.2,South,11.5,-,N/A,,Partly Cloudy,190,2012-10-04 23:20:00
1:50 AM,50.0,44.6,82,29.95,6.2,South,12.7,-,N/A,,Partly Cloudy,180,2012-10-04 23:50:00
2:00 AM,50,44,73,29.96,19,South,11.2,,,,Scattered Clouds,180,2012-10-05 00:00:00
2:20 AM,50.0,44.6,82,29.95,6.2,South,12.7,-,N/A,,Partly Cloudy,190,2012-10-05 00:20:00
2:50 AM,50.0,44.6,82,29.92,6.2,South,11.5,-,N/A,,Partly Cloudy,180,2012-10-05 00:50:00
3:20 AM,51.8,44.6,76,29.89,6.2,South,13.8,-,N/A,,Scattered Clouds,180,2012-10-05 01:20:00
3:50 AM,51.8,46.4,82,29.89,6.2,South,12.7,-,N/A,,Scattered Clouds,180,2012-10-05 01:50:00
4:20 AM,51.8,46.4,82,29.86,6.2,South,12.7,-,N/A,,Scattered Clouds,180,2012-10-05 02:20:00
4:50 AM,53.6,46.4,77,29.86,6.2,South,16.1,-,N/A,,Scattered Clouds,190,2012-10-05 02:50:00
5:00 AM,53,47,72,29.87,19,South,15.7,,,Rain,Light Rain,190,2012-10-05 03:00:00
5:20 AM,51.8,48.2,88,29.86,6.2,South,15.0,-,N/A,Rain,Light Rain,190,2012-10-05 03:20:00
5:50 AM,53.6,50.0,88,29.83,6.2,South,17.3,-,N/A,Rain,Light Rain,190,2012-10-05 03:50:00
6:20 AM,53.6,50.0,88,29.83,6.2,SSW,15.0,-,N/A,Rain,Light Rain,200,2012-10-05 04:20:00
6:50 AM,53.6,51.8,94,29.80,6.2,South,16.1,-,N/A,Rain,Light Rain,190,2012-10-05 04:50:00
7:20 AM,55.4,51.8,88,29.80,6.2,SSW,19.6,-,N/A,Rain,Light Rain,200,2012-10-05 05:20:00
7:50 AM,55.4,53.6,94,29.77,6.2,South,19.6,-,N/A,Rain,Light Rain,190,2012-10-05 05:50:00
8:00 AM,55,53,89,29.79,12,South,20.1,,,Rain,Light Rain,190,2012-10-05 06:00:00
8:20 AM,55.4,53.6,94,29.77,6.2,SSW,21.9,-,N/A,Rain,Light Rain,200,2012-10-05 06:20:00
8:50 AM,57.2,53.6,88,29.77,6.2,SSW,23.0,-,N/A,Rain,Light Rain,210,2012-10-05 06:50:00
9:20 AM,57.2,53.6,88,29.77,4.3,SSW,23.0,-,N/A,Rain,Light Rain,210,2012-10-05 07:20:00
9:50 AM,57.2,55.4,94,29.77,6.2,SSW,25.3,-,N/A,Rain,Light Rain,210,2012-10-05 07:50:00
10:20 AM,59.0,55.4,88,29.77,6.2,SSW,25.3,-,N/A,,Mostly Cloudy,210,2012-10-05 08:20:00
10:50 AM,60.8,55.4,82,29.77,6.2,SW,24.2,-,N/A,,Mostly Cloudy,220,2012-10-05 08:50:00
11:00 AM,60,55,79,29.79,16,SW,24.6,,,Rain,Light Rain,220,2012-10-05 09:00:00
11:20 AM,60.8,55.4,82,29.77,6.2,SW,27.6,40.3,N/A,,Mostly Cloudy,220,2012-10-05 09:20:00
11:50 AM,60.8,55.4,82,29.80,6.2,SW,26.5,39.1,N/A,,Mostly Cloudy,220,2012-10-05 09:50:00
12:20 PM,60.8,55.4,82,29.80,6.2,SW,26.5,-,N/A,,Mostly Cloudy,220,2012-10-05 10:20:00
12:50 PM,60.8,57.2,88,29.80,3.7,SW,23.0,-,N/A,Rain,Light Rain,230,2012-10-05 10:50:00
1:20 PM,60.8,57.2,88,29.80,3.7,SW,24.2,-,N/A,Rain,Light Rain,230,2012-10-05 11:20:00
1:50 PM,60.8,57.2,88,29.80,6.2,SW,19.6,32.2,N/A,,Mostly Cloudy,220,2012-10-05 11:50:00
2:00 PM,61,57,81,29.82,19,SW,20.1,,,Rain,Light Rain,220,2012-10-05 12:00:00
2:20 PM,60.8,57.2,88,29.83,6.2,SW,20.7,-,N/A,,Mostly Cloudy,220,2012-10-05 12:20:00
2:50 PM,62.6,57.2,82,29.83,6.2,SW,23.0,-,N/A,,Mostly Cloudy,220,2012-10-05 12:50:00
3:20 PM,64.4,57.2,77,29.83,6.2,SW,24.2,-,N/A,,Mostly Cloudy,220,2012-10-05 13:20:00
3:50 PM,62.6,57.2,82,29.83,6.2,SW,24.2,-,N/A,,Mostly Cloudy,220,2012-10-05 13:50:00
4:20 PM,62.6,57.2,82,29.83,6.2,SW,21.9,-,N/A,,Mostly Cloudy,220,2012-10-05 14:20:00
4:50 PM,62.6,57.2,82,29.83,6.2,SSW,23.0,-,N/A,,Mostly Cloudy,210,2012-10-05 14:50:00
5:00 PM,63,57,75,29.83,19,SSW,22.4,,,,Mostly Cloudy,210,2012-10-05 15:00:00
5:20 PM,55.4,53.6,94,29.86,1.9,WNW,11.5,-,N/A,Rain,Rain Showers,300,2012-10-05 15:20:00
5:50 PM,59.0,55.4,88,29.86,6.2,West,15.0,-,N/A,,Mostly Cloudy,270,2012-10-05 15:50:00
6:20 PM,59.0,57.2,94,29.86,6.2,West,9.2,-,N/A,,Mostly Cloudy,260,2012-10-05 16:20:00
6:50 PM,59.0,57.2,94,29.86,6.2,West,11.5,-,N/A,Rain,Light Rain Showers,280,2012-10-05 16:50:00
7:20 PM,57.2,55.4,94,29.89,3.7,West,12.7,-,N/A,Rain,Light Rain,280,2012-10-05 17:20:00
7:50 PM,57.2,55.4,94,29.89,-9999.0,West,10.4,-,N/A,Rain,Light Rain,270,2012-10-05 17:50:00
8:00 PM,57,55,92,29.90,2,West,11.2,,,Rain,Light Rain,270,2012-10-05 18:00:00
8:20 PM,57.2,55.4,94,29.89,5.0,West,5.8,-,N/A,Rain,Light Rain,260,2012-10-05 18:20:00
8:50 PM,57.2,55.4,94,29.89,6.2,WSW,8.1,-,N/A,,Mostly Cloudy,240,2012-10-05 18:50:00
9:20 PM,57.2,55.4,94,29.89,6.2,WSW,10.4,-,N/A,,Mostly Cloudy,240,2012-10-05 19:20:00
9:50 PM,57.2,55.4,94,29.89,5.0,WSW,9.2,-,N/A,Rain,Light Rain,240,2012-10-05 19:50:00
10:20 PM,57.2,55.4,94,29.89,-9999.0,SW,4.6,-,N/A,Rain,Light Rain,230,2012-10-05 20:20:00
10:50 PM,59.0,55.4,88,29.89,3.7,WSW,6.9,-,N/A,Rain,Light Rain,240,2012-10-05 20:50:00
11:00 PM,58,56,92,29.90,4,WSW,6.7,,,Rain,Light Rain,240,2012-10-05 21:00:00
11:20 PM,59.0,55.4,88,29.89,4.3,West,3.5,-,N/A,Rain,Light Rain,260,2012-10-05 21:20:00
11:50 PM,59.0,57.2,94,29.89,-9999.0,SW,5.8,-,N/A,Rain,Light Rain,230,2012-10-05 21:50:00